• In Hungary
  • List of Countries
  • For 7 days
  • Water Temperature
  • Satellite Maps
  • Weather Map
  • News
  • Weather Widgets
  • user-avatar
    Login

    Hourly Weather Szymaki

    Today, 23 September, Sunday

    Time Temperature Precipitation Wind Pressure Humidity
    00:00 +10°C° 0 mm 4 mps 752 mmHg 68%
    01:00 +10°C° 0 mm 4 mps 752 mmHg 69%
    02:00 +10°C° 0 mm 4 mps 752 mmHg 70%
    03:00 +8°C° 0 mm 4 mps 752 mmHg 71%
    04:00 +9°C° 0 mm 3 mps 751 mmHg 72%
    05:00 +10°C° 0.1 mm 4 mps 751 mmHg 72%
    06:00 +10°C° 0.1 mm 4 mps 751 mmHg 72%
    07:00 +11°C° 0 mm 4 mps 751 mmHg 71%
    08:00 +10°C° 0.2 mm 5 mps 751 mmHg 71%
    09:00 +12°C° 0.2 mm 5 mps 751 mmHg 72%
    10:00 +12°C° 0.2 mm 5 mps 751 mmHg 72%
    11:00 +13°C° 0.1 mm 5 mps 751 mmHg 67%
    12:00 +14°C° 0.1 mm 5 mps 750 mmHg 63%
    13:00 +15°C° 0.1 mm 5 mps 750 mmHg 58%
    14:00 +15°C° 0.1 mm 4 mps 749 mmHg 60%
    15:00 +14°C° 0.1 mm 3 mps 749 mmHg 62%
    16:00 +14°C° 0.1 mm 3 mps 748 mmHg 64%
    17:00 +14°C° 0.8 mm 2 mps 748 mmHg 71%
    18:00 +13°C° 0.8 mm 2 mps 747 mmHg 79%
    19:00 +12°C° 0.8 mm 2 mps 746 mmHg 87%
    20:00 +12°C° 2.7 mm 2 mps 745 mmHg 89%
    21:00 +10°C° 2.7 mm 3 mps 744 mmHg 91%
    22:00 +10°C° 2.7 mm 4 mps 742 mmHg 93%
    23:00 +9°C° 1.3 mm 5 mps 742 mmHg 92%

    Tomorrow, 24 September, Monday

    Time Temperature Precipitation Wind Pressure Humidity
    00:00 +9°C° 1.3 mm 5 mps 742 mmHg 91%
    01:00 +9°C° 1.3 mm 5 mps 741 mmHg 91%
    02:00 +9°C° 1.5 mm 6 mps 742 mmHg 89%
    03:00 +8°C° 1.5 mm 7 mps 743 mmHg 87%
    04:00 +8°C° 1.5 mm 7 mps 744 mmHg 85%
    05:00 +8°C° 0.2 mm 7 mps 745 mmHg 84%
    06:00 +8°C° 0.2 mm 7 mps 746 mmHg 84%
    07:00 +9°C° 0.2 mm 8 mps 747 mmHg 83%
    08:00 +9°C° 0.1 mm 8 mps 747 mmHg 78%
    09:00 +10°C° 0.1 mm 8 mps 748 mmHg 73%
    10:00 +11°C° 0.1 mm 9 mps 749 mmHg 67%
    11:00 +11°C° 0.3 mm 9 mps 749 mmHg 65%
    12:00 +11°C° 0.3 mm 9 mps 749 mmHg 62%
    13:00 +12°C° 0.3 mm 9 mps 750 mmHg 59%
    14:00 +11°C° 0.3 mm 9 mps 750 mmHg 61%
    15:00 +11°C° 0.3 mm 9 mps 751 mmHg 64%
    16:00 +10°C° 0.3 mm 8 mps 751 mmHg 66%
    17:00 +9°C° 0.3 mm 8 mps 752 mmHg 69%
    18:00 +9°C° 0.3 mm 7 mps 752 mmHg 73%
    19:00 +8°C° 0.3 mm 6 mps 753 mmHg 77%
    20:00 +8°C° 0 mm 6 mps 754 mmHg 78%
    21:00 +7°C° 0 mm 5 mps 755 mmHg 78%
    22:00 +7°C° 0 mm 5 mps 756 mmHg 78%
    23:00 +6°C° 0 mm 5 mps 757 mmHg 79%

    Day after tomorrow, 25 September, Tuesday

    Time Temperature Precipitation Wind Pressure Humidity
    00:00 +6°C° 0 mm 5 mps 757 mmHg 79%
    01:00 +5°C° 0 mm 5 mps 758 mmHg 79%
    02:00 +5°C° 0 mm 5 mps 758 mmHg 80%
    03:00 +5°C° 0 mm 5 mps 759 mmHg 80%
    04:00 +5°C° 0 mm 5 mps 759 mmHg 81%
    05:00 +5°C° 0 mm 5 mps 760 mmHg 77%
    06:00 +5°C° 0 mm 5 mps 760 mmHg 73%
    07:00 +5°C° 0 mm 6 mps 761 mmHg 68%
    08:00 +7°C° 0 mm 6 mps 761 mmHg 61%
    09:00 +9°C° 0 mm 7 mps 762 mmHg 54%
    10:00 +10°C° 0 mm 8 mps 762 mmHg 47%
    11:00 +10°C° 0.1 mm 8 mps 762 mmHg 46%
    12:00 +11°C° 0.1 mm 7 mps 763 mmHg 45%
    13:00 +11°C° 0.1 mm 7 mps 763 mmHg 44%
    14:00 +11°C° 0 mm 7 mps 763 mmHg 45%
    15:00 +11°C° 0 mm 6 mps 763 mmHg 45%
    16:00 +10°C° 0 mm 6 mps 764 mmHg 46%
    17:00 +9°C° 0 mm 5 mps 764 mmHg 51%
    18:00 +8°C° 0 mm 4 mps 764 mmHg 55%
    19:00 +7°C° 0 mm 3 mps 765 mmHg 59%
    20:00 +7°C° 0 mm 3 mps 765 mmHg 60%
    21:00 +6°C° 0 mm 2 mps 766 mmHg 61%
    22:00 +6°C° 0 mm 2 mps 766 mmHg 62%
    23:00 +5°C° 0 mm 2 mps 766 mmHg 61%

    26 September, Wednesday

    Time Temperature Precipitation Wind Pressure Humidity
    00:00 +5°C° 0 mm 2 mps 766 mmHg 60%
    01:00 +5°C° 0 mm 2 mps 766 mmHg 59%
    02:00 +5°C° 0 mm 2 mps 766 mmHg 61%
    03:00 +4°C° 0 mm 3 mps 766 mmHg 62%
    04:00 +3°C° 0 mm 3 mps 766 mmHg 64%
    05:00 +4°C° 0 mm 3 mps 766 mmHg 66%
    06:00 +5°C° 0 mm 4 mps 766 mmHg 67%
    07:00 +5°C° 0 mm 4 mps 766 mmHg 69%
    08:00 +7°C° 0 mm 5 mps 765 mmHg 63%
    09:00 +9°C° 0 mm 6 mps 765 mmHg 58%
    10:00 +11°C° 0 mm 6 mps 765 mmHg 53%
    11:00 +12°C° 0 mm 7 mps 764 mmHg 50%
    12:00 +12°C° 0 mm 7 mps 763 mmHg 48%
    13:00 +14°C° 0 mm 7 mps 763 mmHg 46%
    14:00 +14°C° 0 mm 7 mps 762 mmHg 47%
    15:00 +13°C° 0 mm 6 mps 761 mmHg 48%
    16:00 +13°C° 0 mm 6 mps 761 mmHg 49%
    17:00 +13°C° 0 mm 6 mps 760 mmHg 49%
    18:00 +11°C° 0 mm 6 mps 760 mmHg 49%
    19:00 +11°C° 0 mm 6 mps 759 mmHg 50%
    20:00 +11°C° 0.4 mm 6 mps 759 mmHg 56%
    21:00 +10°C° 0.4 mm 6 mps 759 mmHg 61%
    22:00 +10°C° 0.4 mm 7 mps 758 mmHg 67%
    23:00 +10°C° 0.2 mm 7 mps 758 mmHg 70%

    27 September, Thursday

    Time Temperature Precipitation Wind Pressure Humidity
    00:00 +10°C° 0.2 mm 7 mps 757 mmHg 74%
    01:00 +10°C° 0.2 mm 8 mps 757 mmHg 77%
    02:00 +10°C° 0.1 mm 7 mps 757 mmHg 75%
    03:00 +10°C° 0.1 mm 7 mps 756 mmHg 74%
    04:00 +10°C° 0.1 mm 7 mps 756 mmHg 73%
    05:00 +10°C° 0 mm 7 mps 756 mmHg 73%
    06:00 +11°C° 0 mm 7 mps 756 mmHg 74%
    07:00 +11°C° 0 mm 7 mps 756 mmHg 75%
    08:00 +11°C° 0 mm 7 mps 756 mmHg 76%
    09:00 +12°C° 0 mm 7 mps 756 mmHg 77%
    10:00 +12°C° 0 mm 7 mps 757 mmHg 78%
    11:00 +15°C° 0 mm 7 mps 757 mmHg 75%
    12:00 +16°C° 0 mm 7 mps 756 mmHg 73%
    13:00 +17°C° 0 mm 7 mps 756 mmHg 70%
    14:00 +17°C° 0 mm 6 mps 756 mmHg 71%
    15:00 +17°C° 0 mm 6 mps 756 mmHg 72%
    16:00 +17°C° 0 mm 5 mps 756 mmHg 73%
    17:00 +16°C° 0 mm 5 mps 756 mmHg 76%
    18:00 +17°C° 0 mm 4 mps 756 mmHg 79%
    19:00 +15°C° 0 mm 4 mps 756 mmHg 83%
    20:00 +15°C° 0 mm 4 mps 756 mmHg 84%
    21:00 +14°C° 0 mm 4 mps 756 mmHg 86%
    22:00 +14°C° 0 mm 4 mps 755 mmHg 87%
    23:00 +14°C° 0 mm 4 mps 755 mmHg 87%

    28 September, Friday

    Time Temperature Precipitation Wind Pressure Humidity
    00:00 +14°C° 0 mm 5 mps 754 mmHg 86%
    01:00 +14°C° 0 mm 5 mps 754 mmHg 86%
    02:00 +13°C° 0 mm 5 mps 754 mmHg 85%
    03:00 +13°C° 0 mm 5 mps 753 mmHg 83%
    04:00 +13°C° 0 mm 5 mps 753 mmHg 82%
    05:00 +13°C° 0 mm 5 mps 753 mmHg 80%
    06:00 +13°C° 0 mm 5 mps 753 mmHg 78%
    07:00 +14°C° 0 mm 5 mps 753 mmHg 76%
    08:00 +15°C° 0 mm 6 mps 753 mmHg 74%
    09:00 +16°C° 0 mm 6 mps 753 mmHg 71%
    10:00 +17°C° 0 mm 6 mps 753 mmHg 68%
    11:00 +17°C° 0 mm 5 mps 753 mmHg 68%
    12:00 +17°C° 0 mm 5 mps 754 mmHg 67%
    13:00 +17°C° 0 mm 5 mps 754 mmHg 67%
    14:00 +17°C° 0 mm 4 mps 754 mmHg 65%
    15:00 +17°C° 0 mm 4 mps 754 mmHg 62%
    16:00 +17°C° 0 mm 3 mps 754 mmHg 60%
    17:00 +16°C° 0 mm 3 mps 755 mmHg 61%
    18:00 +13°C° 0 mm 3 mps 755 mmHg 63%
    19:00 +12°C° 0 mm 3 mps 756 mmHg 64%
    20:00 +11°C° 0 mm 3 mps 756 mmHg 66%
    21:00 +11°C° 0 mm 3 mps 756 mmHg 69%
    22:00 +10°C° 0 mm 3 mps 757 mmHg 71%
    23:00 +10°C° 0 mm 3 mps 757 mmHg 73%
    Show more